contact:dominique.lefevre@mio.osupytheas.fr, maurice.libes@osupytheas.fr, didier.mallarino@osupytheas.fr
Project:EMSO http://www.emso-fr.org/EMSO-France
Depth: 2436.0 m
Title:EMSO Ligure Ouest : Data MII capteur AQUADOPP
Date,Latitude,Longitude,X_East,Y_North,Z_Up,Amplitude_X,Amplitude_Y,Amplitude_Z,Batterie,SoundSpeed,Heading,Pitch,Roll,Pressure,TIS,Speed,Direction
, degrees North, degrees East, m.s-1, m.s-1,m.s-1, 1, 1, 1, Volt, m.s-1, degree, degree, degree, dbar, degree_C, m.s-1, degree
2022-04-01T00:04:03,42.805,6.029,-0.074,0.019,0.011,106.0,106.0,104.0,13.4,1505.2,326.4,-0.7,1.9,2470.49,13.28,0.076,284.4
2022-04-01T00:07:03,42.805,6.029,-0.057,0.008,-0.018,107.0,106.0,104.0,13.3,1505.2,326.3,-0.8,1.9,2470.491,13.28,0.057,278.0
2022-04-01T00:10:03,42.805,6.029,-0.06,0.022,-0.026,108.0,106.0,104.0,13.4,1505.2,328.1,-0.8,1.8,2470.464,13.29,0.063,290.1
2022-04-01T00:13:03,42.805,6.029,-0.068,0.014,0.01,106.0,107.0,104.0,13.4,1505.2,332.4,-0.7,1.8,2470.479,13.29,0.069,281.6
2022-04-01T00:16:03,42.805,6.029,-0.062,0.021,-0.024,106.0,106.0,104.0,13.4,1505.2,327.1,-0.8,1.8,2470.439,13.29,0.065,288.7
2022-04-01T00:19:03,42.805,6.029,-0.053,0.003,-0.011,107.0,107.0,105.0,13.4,1505.2,330.1,-0.7,1.8,2470.392,13.29,0.053,273.2
2022-04-01T00:22:03,42.805,6.029,-0.05,0.009,0.0,108.0,107.0,104.0,13.4,1505.2,326.9,-0.8,1.8,2470.455,13.29,0.05,280.2
2022-04-01T00:25:03,42.805,6.029,-0.043,0.016,0.022,106.0,107.0,104.0,13.3,1505.2,329.8,-0.8,1.8,2470.439,13.29,0.045,290.4
2022-04-01T00:28:03,42.805,6.029,-0.07,0.019,0.015,107.0,106.0,104.0,13.4,1505.2,323.6,-0.8,1.8,2470.452,13.29,0.072,285.2
2022-04-01T00:31:03,42.805,6.029,-0.038,0.016,-0.007,107.0,107.0,105.0,13.4,1505.2,327.4,-0.7,1.8,2470.423,13.29,0.041,292.8
2022-04-01T00:34:03,42.805,6.029,-0.045,0.012,0.014,107.0,106.0,105.0,13.4,1505.2,330.9,-0.8,1.8,2470.44,13.29,0.046,284.9
2022-04-01T00:37:03,42.805,6.029,-0.034,0.021,-0.002,107.0,107.0,105.0,13.4,1505.2,327.0,-0.8,1.8,2470.436,13.29,0.039,301.7
2022-04-01T00:40:03,42.805,6.029,-0.065,0.006,-0.02,107.0,107.0,104.0,13.4,1505.2,328.3,-0.8,1.8,2470.456,13.29,0.065,275.3
2022-04-01T00:43:03,42.805,6.029,-0.029,0.015,0.001,106.0,107.0,106.0,13.4,1505.2,329.0,-0.8,1.8,2470.46,13.29,0.032,297.4
2022-04-01T00:46:03,42.805,6.029,-0.063,0.002,0.013,107.0,106.0,103.0,13.4,1505.2,326.6,-0.7,1.8,2470.432,13.29,0.063,271.8
2022-04-01T00:49:03,42.805,6.029,-0.033,0.051,0.007,107.0,107.0,105.0,13.4,1505.2,330.4,-0.7,1.8,2470.463,13.29,0.06,327.1
2022-04-01T00:52:03,42.805,6.029,-0.069,0.04,-0.013,106.0,106.0,104.0,13.3,1505.2,328.1,-0.8,1.8,2470.443,13.29,0.079,300.1
2022-04-01T00:55:03,42.805,6.029,-0.058,0.038,-0.01,107.0,105.0,104.0,13.4,1505.2,331.8,-0.8,1.8,2470.44,13.29,0.069,303.2
2022-04-01T00:58:03,42.805,6.029,-0.04,0.008,0.009,108.0,107.0,104.0,13.4,1505.2,328.1,-0.8,1.9,2470.453,13.29,0.04,281.3
2022-04-01T01:04:03,42.805,6.029,-0.059,0.012,-0.006,108.0,107.0,105.0,13.4,1505.2,325.8,-0.8,1.8,2470.472,13.28,0.06,281.5
2022-04-01T01:07:03,42.805,6.029,-0.055,0.032,-0.005,107.0,107.0,103.0,13.4,1505.2,330.9,-0.7,1.8,2470.461,13.28,0.063,300.2
2022-04-01T01:10:03,42.805,6.029,-0.056,0.019,-0.015,107.0,106.0,104.0,13.3,1505.2,324.7,-0.8,1.8,2470.45,13.29,0.059,288.7
2022-04-01T01:13:03,42.805,6.029,-0.033,0.003,-0.016,107.0,108.0,104.0,13.4,1505.2,326.5,-0.8,1.8,2470.449,13.29,0.033,275.2
2022-04-01T01:16:03,42.805,6.029,-0.062,0.002,-0.01,108.0,107.0,104.0,13.4,1505.2,332.4,-0.7,1.8,2470.452,13.29,0.062,271.8
2022-04-01T01:19:03,42.805,6.029,-0.066,0.006,0.006,106.0,106.0,105.0,13.3,1505.2,325.7,-0.8,1.8,2470.417,13.29,0.066,275.2
2022-04-01T01:22:03,42.805,6.029,-0.069,0.036,0.003,107.0,106.0,105.0,13.4,1505.2,328.0,-0.8,1.8,2470.417,13.29,0.077,297.6
2022-04-01T01:25:03,42.805,6.029,-0.069,0.029,0.003,107.0,106.0,103.0,13.4,1505.2,332.5,-0.8,1.8,2470.43,13.29,0.074,292.8
2022-04-01T01:28:03,42.805,6.029,-0.056,0.016,0.003,106.0,105.0,105.0,13.3,1505.2,325.4,-0.8,1.8,2470.406,13.29,0.058,285.9
2022-04-01T01:31:03,42.805,6.029,-0.049,0.016,-0.033,108.0,107.0,105.0,13.4,1505.2,326.3,-0.8,1.8,2470.432,13.29,0.051,288.1
2022-04-01T01:34:03,42.805,6.029,-0.059,0.032,-0.016,107.0,105.0,104.0,13.3,1505.2,325.8,-0.8,1.8,2470.454,13.29,0.067,298.5
2022-04-01T01:37:03,42.805,6.029,-0.077,0.033,-0.002,106.0,106.0,103.0,13.4,1505.2,326.2,-0.8,1.8,2470.425,13.29,0.083,293.2
2022-04-01T01:40:03,42.805,6.029,-0.052,0.033,-0.031,107.0,106.0,104.0,13.4,1505.2,332.2,-0.8,1.8,2470.46,13.29,0.061,302.4
2022-04-01T01:43:03,42.805,6.029,-0.041,0.042,-0.032,107.0,107.0,104.0,13.3,1505.2,331.7,-0.8,1.8,2470.409,13.29,0.058,315.7
2022-04-01T01:46:03,42.805,6.029,-0.039,0.013,-0.005,106.0,107.0,104.0,13.4,1505.2,329.3,-0.8,1.8,2470.428,13.29,0.041,288.4
2022-04-01T01:49:03,42.805,6.029,-0.035,0.015,-0.017,107.0,106.0,105.0,13.3,1505.2,330.4,-0.8,1.8,2470.425,13.29,0.038,293.2
2022-04-01T01:52:03,42.805,6.029,-0.068,0.028,0.014,107.0,105.0,104.0,13.4,1505.2,326.2,-0.7,1.8,2470.394,13.29,0.073,292.4
2022-04-01T01:55:03,42.805,6.029,-0.038,0.032,0.019,106.0,105.0,104.0,13.4,1505.2,326.4,-0.8,1.8,2470.451,13.29,0.049,310.1
2022-04-01T01:58:03,42.805,6.029,-0.051,0.023,0.027,107.0,106.0,104.0,13.3,1505.2,331.3,-0.8,1.8,2470.39,13.29,0.055,294.3
2022-04-01T02:04:03,42.805,6.029,-0.065,0.035,0.006,106.0,105.0,104.0,13.4,1505.2,324.1,-0.8,1.8,2470.464,13.28,0.073,298.3
2022-04-01T02:07:03,42.805,6.029,-0.056,0.029,0.015,107.0,106.0,104.0,13.4,1505.2,326.7,-0.7,1.8,2470.414,13.28,0.063,297.4
2022-04-01T02:10:03,42.805,6.029,-0.058,0.019,0.0,107.0,105.0,103.0,13.4,1505.2,326.3,-0.7,1.8,2470.426,13.28,0.061,288.1
2022-04-01T02:13:03,42.805,6.029,-0.039,0.025,0.037,107.0,107.0,105.0,13.4,1505.2,330.2,-0.7,1.8,2470.431,13.29,0.046,302.7
2022-04-01T02:16:03,42.805,6.029,-0.047,0.02,0.039,107.0,106.0,103.0,13.4,1505.2,331.2,-0.7,1.8,2470.421,13.29,0.051,293.0
2022-04-01T02:19:03,42.805,6.029,-0.042,0.007,-0.032,107.0,106.0,105.0,13.3,1505.2,328.7,-0.8,1.8,2470.436,13.29,0.042,279.5
2022-04-01T02:22:03,42.805,6.029,-0.054,0.013,-0.023,107.0,106.0,104.0,13.4,1505.2,328.9,-0.7,1.8,2470.411,13.29,0.055,283.5
2022-04-01T02:25:03,42.805,6.029,-0.043,0.025,0.009,107.0,106.0,105.0,13.3,1505.2,328.2,-0.8,1.8,2470.409,13.29,0.049,300.2
2022-04-01T02:28:03,42.805,6.029,-0.053,0.023,0.017,106.0,104.0,104.0,13.4,1505.2,326.3,-0.7,1.8,2470.397,13.29,0.057,293.5
2022-04-01T02:31:03,42.805,6.029,-0.055,0.026,0.0,108.0,106.0,105.0,13.3,1505.2,330.0,-0.8,1.8,2470.449,13.29,0.06,295.3
2022-04-01T02:34:03,42.805,6.029,-0.054,0.002,0.004,107.0,107.0,102.0,13.4,1505.2,324.6,-0.8,1.8,2470.465,13.29,0.054,272.1
2022-04-01T02:37:03,42.805,6.029,-0.052,0.017,-0.029,106.0,107.0,105.0,13.4,1505.2,330.9,-0.8,1.8,2470.436,13.29,0.054,288.1
2022-04-01T02:40:03,42.805,6.029,-0.028,0.034,0.008,106.0,107.0,104.0,13.3,1505.2,327.5,-0.8,1.8,2470.438,13.29,0.044,320.5
2022-04-01T02:43:03,42.805,6.029,-0.054,0.01,-0.01,107.0,106.0,103.0,13.4,1505.2,331.4,-0.8,1.8,2470.39,13.29,0.054,280.5
2022-04-01T02:46:03,42.805,6.029,-0.052,0.024,0.011,107.0,107.0,104.0,13.4,1505.2,322.2,-0.8,1.8,2470.433,13.29,0.057,294.8
2022-04-01T02:49:03,42.805,6.029,-0.061,0.029,-0.016,106.0,106.0,102.0,13.4,1505.2,331.1,-0.7,1.8,2470.425,13.29,0.067,295.4
2022-04-01T02:52:03,42.805,6.029,-0.052,0.03,-0.011,106.0,106.0,104.0,13.4,1505.2,323.4,-0.7,1.8,2470.44,13.29,0.06,300.0
2022-04-01T02:55:03,42.805,6.029,-0.049,0.026,-0.012,107.0,106.0,104.0,13.4,1505.2,328.4,-0.7,1.8,2470.427,13.29,0.055,297.9
2022-04-01T02:58:03,42.805,6.029,-0.064,-0.002,-0.016,107.0,106.0,104.0,13.4,1505.2,326.0,-0.8,1.8,2470.427,13.29,0.064,268.2
2022-04-01T03:04:03,42.805,6.029,-0.043,0.018,-0.004,106.0,106.0,104.0,13.4,1505.2,322.9,-0.8,1.8,2470.452,13.28,0.046,292.7
2022-04-01T03:07:03,42.805,6.029,-0.048,0.036,0.001,107.0,106.0,104.0,13.4,1505.2,328.1,-0.7,1.9,2470.434,13.28,0.06,306.9
2022-04-01T03:10:03,42.805,6.029,-0.052,0.021,0.015,107.0,105.0,103.0,13.4,1505.2,323.7,-0.8,1.8,2470.455,13.28,0.056,292.0
2022-04-01T03:13:03,42.805,6.029,-0.04,0.044,-0.013,107.0,107.0,104.0,13.4,1505.2,332.5,-0.7,1.8,2470.437,13.29,0.059,317.7
2022-04-01T03:16:03,42.805,6.029,-0.037,0.039,0.005,106.0,105.0,104.0,13.4,1505.2,323.5,-0.8,1.8,2470.437,13.29,0.053,316.5
2022-04-01T03:19:03,42.805,6.029,-0.046,0.011,-0.013,106.0,106.0,104.0,13.3,1505.2,324.6,-0.8,1.8,2470.449,13.29,0.047,283.4
2022-04-01T03:22:03,42.805,6.029,-0.057,0.027,-0.012,106.0,106.0,103.0,13.3,1505.2,326.4,-0.7,1.8,2470.445,13.29,0.063,295.3
2022-04-01T03:25:03,42.805,6.029,-0.049,0.01,0.006,106.0,105.0,103.0,13.4,1505.2,325.5,-0.7,1.8,2470.436,13.29,0.05,281.5
2022-04-01T03:28:03,42.805,6.029,-0.043,0.036,0.002,107.0,106.0,104.0,13.4,1505.2,328.6,-0.8,1.7,2470.441,13.29,0.056,309.9
2022-04-01T03:31:03,42.805,6.029,-0.046,0.013,0.054,107.0,106.0,104.0,13.4,1505.2,327.9,-0.8,1.8,2470.425,13.29,0.047,285.8
2022-04-01T03:34:03,42.805,6.029,-0.037,0.02,-0.011,107.0,106.0,105.0,13.4,1505.2,330.9,-0.8,1.8,2470.402,13.29,0.042,298.4
2022-04-01T03:37:03,42.805,6.029,-0.061,0.004,0.014,106.0,105.0,104.0,13.3,1505.2,323.6,-0.8,1.8,2470.408,13.29,0.061,273.7
2022-04-01T03:40:03,42.805,6.029,-0.04,0.036,0.013,106.0,106.0,103.0,13.3,1505.2,328.4,-0.8,1.8,2470.46,13.29,0.053,312.0
2022-04-01T03:43:03,42.805,6.029,-0.049,0.01,0.019,106.0,105.0,103.0,13.4,1505.2,329.6,-0.8,1.8,2470.438,13.29,0.05,281.5
2022-04-01T03:46:03,42.805,6.029,-0.04,0.032,-0.001,107.0,104.0,104.0,13.4,1505.2,323.3,-0.8,1.8,2470.457,13.29,0.051,308.7
2022-04-01T03:49:03,42.805,6.029,-0.036,0.034,0.012,107.0,105.0,103.0,13.4,1505.2,328.1,-0.8,1.8,2470.465,13.29,0.049,313.4
2022-04-01T03:52:03,42.805,6.029,-0.044,0.047,0.004,106.0,105.0,103.0,13.4,1505.2,333.6,-0.8,1.9,2470.444,13.29,0.064,316.9
2022-04-01T03:55:03,42.805,6.029,-0.07,-0.001,0.007,106.0,104.0,103.0,13.4,1505.2,326.2,-0.7,1.8,2470.47,13.29,0.07,269.2
2022-04-01T03:58:03,42.805,6.029,-0.053,0.036,-0.025,107.0,105.0,104.0,13.4,1505.2,327.6,-0.8,1.8,2470.461,13.29,0.064,304.2
2022-04-01T04:04:03,42.805,6.029,-0.048,0.01,-0.002,107.0,105.0,104.0,13.4,1505.2,331.3,-0.7,1.8,2470.499,13.28,0.049,281.8
2022-04-01T04:07:03,42.805,6.029,-0.031,0.021,-0.008,107.0,105.0,103.0,13.4,1505.2,324.9,-0.7,1.9,2470.495,13.28,0.037,304.1
2022-04-01T04:10:03,42.805,6.029,-0.043,0.023,-0.022,107.0,105.0,104.0,13.4,1505.2,328.2,-0.8,1.8,2470.492,13.28,0.048,298.1
2022-04-01T04:13:03,42.805,6.029,-0.052,0.024,0.052,107.0,105.0,103.0,13.4,1505.2,326.0,-0.7,1.8,2470.52,13.28,0.057,294.8
2022-04-01T04:16:03,42.805,6.029,-0.042,0.024,0.016,106.0,105.0,103.0,13.4,1505.2,330.6,-0.7,1.8,2470.551,13.29,0.048,299.7
2022-04-01T04:19:03,42.805,6.029,-0.03,0.017,-0.028,107.0,106.0,103.0,13.4,1505.2,326.6,-0.7,1.8,2470.521,13.29,0.034,299.5
2022-04-01T04:22:03,42.805,6.029,-0.054,0.028,0.006,106.0,106.0,103.0,13.4,1505.2,326.3,-0.8,1.8,2470.55,13.29,0.06,297.4
2022-04-01T04:25:03,42.805,6.029,-0.066,0.047,0.029,105.0,105.0,104.0,13.4,1505.2,327.5,-0.8,1.8,2470.508,13.29,0.081,305.5
2022-04-01T04:28:03,42.805,6.029,-0.044,0.011,0.01,106.0,106.0,102.0,13.4,1505.2,331.5,-0.8,1.8,2470.548,13.29,0.045,284.0
2022-04-01T04:31:03,42.805,6.029,-0.038,0.023,0.015,108.0,104.0,105.0,13.4,1505.2,329.0,-0.7,1.8,2470.528,13.29,0.044,301.2
2022-04-01T04:34:03,42.805,6.029,-0.06,0.031,0.03,106.0,105.0,103.0,13.4,1505.2,323.9,-0.8,1.8,2470.534,13.29,0.067,297.3
2022-04-01T04:37:03,42.805,6.029,-0.027,0.028,0.008,106.0,106.0,103.0,13.4,1505.2,330.0,-0.8,1.8,2470.541,13.29,0.038,316.0
2022-04-01T04:40:03,42.805,6.029,-0.059,0.021,-0.007,106.0,106.0,103.0,13.4,1505.2,330.3,-0.7,1.8,2470.546,13.29,0.062,289.6
2022-04-01T04:43:03,42.805,6.029,-0.064,0.026,0.0,105.0,105.0,103.0,13.4,1505.2,329.2,-0.8,1.8,2470.535,13.29,0.069,292.1
2022-04-01T04:46:03,42.805,6.029,-0.055,0.018,0.009,106.0,106.0,104.0,13.4,1505.2,327.1,-0.8,1.8,2470.552,13.29,0.057,288.1
2022-04-01T04:49:03,42.805,6.029,-0.036,0.021,-0.02,107.0,105.0,103.0,13.4,1505.2,330.4,-0.8,1.8,2470.537,13.29,0.041,300.3
2022-04-01T04:52:03,42.805,6.029,-0.049,0.015,0.013,106.0,106.0,104.0,13.3,1505.2,331.1,-0.8,1.8,2470.55,13.29,0.051,287.0
2022-04-01T04:55:03,42.805,6.029,-0.055,0.034,-0.025,106.0,105.0,104.0,13.4,1505.2,326.5,-0.8,1.8,2470.548,13.29,0.064,301.7
2022-04-01T04:58:03,42.805,6.029,-0.06,0.01,0.007,106.0,105.0,104.0,13.4,1505.2,329.9,-0.8,1.8,2470.549,13.29,0.06,279.5
2022-04-01T05:04:03,42.805,6.029,-0.065,0.005,-0.01,106.0,104.0,103.0,13.3,1505.2,326.3,-0.8,1.8,2470.601,13.28,0.065,274.4
2022-04-01T05:07:03,42.805,6.029,-0.05,0.034,-0.003,105.0,106.0,103.0,13.4,1505.2,328.1,-0.8,1.8,2470.636,13.28,0.06,304.2
2022-04-01T05:10:03,42.805,6.029,-0.056,0.032,-0.009,107.0,106.0,103.0,13.3,1505.2,330.5,-0.7,1.8,2470.617,13.28,0.064,299.7
2022-04-01T05:13:03,42.805,6.029,-0.056,0.029,0.009,105.0,105.0,103.0,13.3,1505.2,332.7,-0.7,1.8,2470.622,13.28,0.063,297.4
2022-04-01T05:16:03,42.805,6.029,-0.055,0.022,-0.021,106.0,105.0,103.0,13.3,1505.2,331.5,-0.7,1.8,2470.611,13.28,0.059,291.8
2022-04-01T05:19:03,42.805,6.029,-0.051,0.027,-0.007,106.0,106.0,104.0,13.4,1505.2,331.8,-0.8,1.8,2470.612,13.29,0.057,297.9
2022-04-01T05:22:03,42.805,6.029,-0.056,0.022,0.005,107.0,106.0,104.0,13.3,1505.2,325.2,-0.7,1.8,2470.6,13.29,0.06,291.4
2022-04-01T05:25:03,42.805,6.029,-0.054,0.029,0.004,105.0,105.0,104.0,13.4,1505.2,326.2,-0.8,1.8,2470.596,13.29,0.061,298.2
2022-04-01T05:28:03,42.805,6.029,-0.05,0.023,-0.029,105.0,105.0,104.0,13.4,1505.2,330.6,-0.7,1.8,2470.569,13.29,0.055,294.7
2022-04-01T05:31:03,42.805,6.029,-0.065,0.036,0.021,106.0,105.0,104.0,13.4,1505.2,323.3,-0.8,1.8,2470.629,13.29,0.074,299.0
2022-04-01T05:34:03,42.805,6.029,-0.059,0.02,-0.017,106.0,106.0,102.0,13.4,1505.2,329.9,-0.8,1.8,2470.679,13.29,0.062,288.7
2022-04-01T05:37:03,42.805,6.029,-0.054,0.042,-0.011,106.0,105.0,103.0,13.4,1505.2,329.4,-0.7,1.8,2470.639,13.29,0.068,307.9
2022-04-01T05:40:03,42.805,6.029,-0.058,0.021,-0.026,106.0,104.0,104.0,13.3,1505.2,331.8,-0.8,1.8,2470.609,13.29,0.061,289.9
2022-04-01T05:43:03,42.805,6.029,-0.065,0.034,0.028,106.0,104.0,104.0,13.3,1505.2,327.9,-0.8,1.8,2470.645,13.29,0.073,297.6
2022-04-01T05:46:03,42.805,6.029,-0.055,0.031,-0.009,106.0,105.0,103.0,13.3,1505.2,323.4,-0.7,1.8,2470.616,13.29,0.063,299.4
2022-04-01T05:49:03,42.805,6.029,-0.05,0.026,-0.01,107.0,105.0,104.0,13.3,1505.2,330.2,-0.8,1.8,2470.648,13.29,0.056,297.5
2022-04-01T05:52:03,42.805,6.029,-0.054,0.025,0.026,106.0,104.0,103.0,13.4,1505.2,329.2,-0.8,1.8,2470.623,13.29,0.059,294.8
2022-04-01T05:55:03,42.805,6.029,-0.047,0.024,0.0,106.0,106.0,104.0,13.4,1505.2,330.4,-0.7,1.8,2470.655,13.29,0.052,297.0
2022-04-01T05:58:03,42.805,6.029,-0.047,0.035,-0.019,105.0,105.0,103.0,13.4,1505.2,328.5,-0.8,1.8,2470.674,13.29,0.058,306.7
2022-04-01T06:04:03,42.805,6.029,-0.053,0.032,0.027,106.0,105.0,104.0,13.4,1505.2,324.6,-0.8,1.8,2470.706,13.28,0.061,301.1
2022-04-01T06:07:03,42.805,6.029,-0.035,0.0,-0.005,106.0,105.0,104.0,13.4,1505.2,326.5,-0.8,1.8,2470.67,13.28,0.035,270.0
2022-04-01T06:10:03,42.805,6.029,-0.053,-0.006,-0.02,106.0,105.0,104.0,13.3,1505.2,325.1,-0.8,1.8,2470.643,13.28,0.053,263.5
2022-04-01T06:13:03,42.805,6.029,-0.05,0.035,0.011,107.0,106.0,105.0,13.4,1505.2,332.9,-0.7,1.8,2470.685,13.28,0.061,305.0
2022-04-01T06:16:03,42.805,6.029,-0.056,0.034,-0.027,105.0,105.0,103.0,13.4,1505.2,328.7,-0.7,1.8,2470.71,13.29,0.065,301.3
2022-04-01T06:19:03,42.805,6.029,-0.053,0.003,-0.001,106.0,105.0,103.0,13.4,1505.2,332.7,-0.7,1.8,2470.688,13.28,0.053,273.2
2022-04-01T06:22:03,42.805,6.029,-0.049,0.024,-0.024,107.0,105.0,103.0,13.4,1505.2,330.3,-0.7,1.8,2470.692,13.29,0.054,296.1
2022-04-01T06:25:03,42.805,6.029,-0.068,0.028,-0.009,105.0,105.0,104.0,13.4,1505.2,328.7,-0.8,1.8,2470.693,13.29,0.073,292.4
2022-04-01T06:28:03,42.805,6.029,-0.064,0.002,-0.023,106.0,105.0,102.0,13.4,1505.2,330.7,-0.7,1.9,2470.687,13.29,0.064,271.8
2022-04-01T06:31:03,42.805,6.029,-0.053,0.006,-0.01,105.0,105.0,103.0,13.4,1505.2,323.4,-0.7,1.8,2470.693,13.29,0.053,276.5
2022-04-01T06:34:03,42.805,6.029,-0.065,0.022,-0.016,104.0,105.0,103.0,13.4,1505.2,325.6,-0.8,1.8,2470.65,13.29,0.068,288.7
2022-04-01T06:37:03,42.805,6.029,-0.034,0.013,-0.007,106.0,106.0,103.0,13.3,1505.2,327.9,-0.8,1.8,2470.701,13.29,0.036,290.9
2022-04-01T06:40:03,42.805,6.029,-0.064,0.018,-0.015,107.0,106.0,103.0,13.3,1505.2,328.6,-0.8,1.8,2470.708,13.29,0.066,285.7
2022-04-01T06:43:03,42.805,6.029,-0.054,0.023,0.009,106.0,105.0,103.0,13.3,1505.2,326.3,-0.7,1.8,2470.682,13.29,0.058,293.1
2022-04-01T06:46:03,42.805,6.029,-0.053,0.03,0.019,106.0,105.0,103.0,13.4,1505.2,325.0,-0.7,1.8,2470.802,13.29,0.06,299.5
2022-04-01T06:49:03,42.805,6.029,-0.052,0.014,-0.013,105.0,106.0,102.0,13.3,1505.2,326.1,-0.8,1.8,2470.63,13.29,0.053,285.1
2022-04-01T06:52:03,42.805,6.029,-0.058,0.023,-0.015,105.0,105.0,104.0,13.4,1505.2,331.4,-0.8,1.8,2470.641,13.29,0.062,291.6
2022-04-01T06:55:03,42.805,6.029,-0.043,-0.002,0.0,105.0,105.0,103.0,13.4,1505.2,327.0,-0.7,1.8,2470.592,13.29,0.043,267.3
2022-04-01T06:58:03,42.805,6.029,-0.053,0.026,0.001,105.0,104.0,104.0,13.3,1505.2,331.5,-0.8,1.8,2470.597,13.29,0.059,296.1
2022-04-01T07:04:03,42.805,6.029,-0.086,0.031,-0.018,105.0,104.0,103.0,13.3,1505.2,327.5,-0.8,1.8,2470.555,13.28,0.091,289.8
2022-04-01T07:07:03,42.805,6.029,-0.051,0.015,-0.019,105.0,105.0,104.0,13.4,1505.2,329.6,-0.7,1.8,2470.563,13.28,0.053,286.4
2022-04-01T07:10:03,42.805,6.029,-0.047,0.025,-0.01,106.0,105.0,103.0,13.4,1505.2,329.7,-0.8,1.8,2470.606,13.28,0.053,298.0
2022-04-01T07:13:03,42.805,6.029,-0.071,0.019,-0.011,106.0,105.0,103.0,13.3,1505.2,328.4,-0.8,1.8,2470.521,13.28,0.073,285.0
2022-04-01T07:16:03,42.805,6.029,-0.068,0.025,-0.01,106.0,105.0,103.0,13.3,1505.2,331.4,-0.8,1.8,2470.528,13.28,0.072,290.2
2022-04-01T07:19:03,42.805,6.029,-0.029,0.018,-0.014,107.0,104.0,103.0,13.4,1505.2,329.7,-0.8,1.8,2470.537,13.28,0.034,301.8
2022-04-01T07:22:03,42.805,6.029,-0.058,0.022,-0.026,104.0,106.0,103.0,13.3,1505.2,327.9,-0.8,1.9,2470.534,13.29,0.062,290.8
2022-04-01T07:25:03,42.805,6.029,-0.077,0.005,-0.027,106.0,105.0,104.0,13.4,1505.2,329.4,-0.8,1.8,2470.522,13.28,0.077,273.7
2022-04-01T07:28:03,42.805,6.029,-0.036,0.006,-0.002,106.0,106.0,103.0,13.3,1505.2,325.9,-0.8,1.8,2470.532,13.29,0.036,279.5
2022-04-01T07:31:03,42.805,6.029,-0.044,0.014,-0.007,106.0,105.0,103.0,13.4,1505.2,323.2,-0.8,1.8,2470.531,13.28,0.046,287.6
2022-04-01T07:34:03,42.805,6.029,-0.064,0.0,0.011,106.0,105.0,103.0,13.4,1505.2,326.1,-0.7,1.9,2470.517,13.28,0.063,270.0
2022-04-01T07:37:03,42.805,6.029,-0.073,0.035,0.003,106.0,105.0,103.0,13.4,1505.2,331.8,-0.7,1.8,2470.473,13.29,0.08,295.6
2022-04-01T07:40:03,42.805,6.029,-0.062,0.038,-0.021,107.0,105.0,104.0,13.3,1505.2,325.8,-0.7,1.8,2470.467,13.29,0.072,301.5
2022-04-01T07:43:03,42.805,6.029,-0.079,0.012,-0.003,105.0,104.0,103.0,13.4,1505.2,323.6,-0.7,1.8,2470.473,13.29,0.079,278.6
2022-04-01T07:46:03,42.805,6.029,-0.063,-0.012,-0.023,104.0,105.0,105.0,13.3,1505.2,327.1,-0.7,1.8,2470.452,13.29,0.064,259.2
2022-04-01T07:49:03,42.805,6.029,-0.067,0.023,-0.033,105.0,105.0,104.0,13.4,1505.2,325.8,-0.8,1.8,2470.477,13.29,0.07,288.9
2022-04-01T07:52:03,42.805,6.029,-0.068,0.012,-0.002,107.0,105.0,104.0,13.4,1505.2,324.9,-0.8,1.8,2470.48,13.29,0.069,280.0
2022-04-01T07:55:03,42.805,6.029,-0.069,0.03,-0.01,105.0,106.0,103.0,13.4,1505.2,325.3,-0.7,1.8,2470.439,13.29,0.075,293.5
2022-04-01T07:58:03,42.805,6.029,-0.052,0.023,0.0,106.0,106.0,103.0,13.4,1505.2,329.6,-0.7,1.8,2470.505,13.29,0.056,293.9
2022-04-01T08:04:03,42.805,6.029,-0.056,0.023,-0.011,106.0,105.0,104.0,13.4,1505.2,328.5,-0.7,1.8,2470.491,13.28,0.06,292.3
2022-04-01T08:07:03,42.805,6.029,-0.056,0.008,0.0,106.0,106.0,103.0,13.4,1505.2,325.0,-0.8,1.8,2470.48,13.28,0.056,278.1
2022-04-01T08:10:03,42.805,6.029,-0.041,0.019,0.015,106.0,106.0,103.0,13.4,1505.2,324.7,-0.7,1.8,2470.532,13.28,0.045,294.9
2022-04-01T08:13:03,42.805,6.029,-0.036,0.015,0.001,107.0,105.0,103.0,13.3,1505.2,331.2,-0.8,1.8,2470.514,13.28,0.039,292.6
2022-04-01T08:16:03,42.805,6.029,-0.052,0.028,-0.008,106.0,105.0,102.0,13.4,1505.2,327.8,-0.7,1.8,2470.563,13.28,0.059,298.3
2022-04-01T08:19:03,42.805,6.029,-0.063,0.005,-0.01,106.0,106.0,103.0,13.3,1505.2,329.8,-0.8,1.8,2470.557,13.28,0.063,274.5
2022-04-01T08:22:03,42.805,6.029,-0.063,0.015,-0.029,107.0,105.0,103.0,13.3,1505.2,327.9,-0.7,1.8,2470.603,13.29,0.064,283.4
2022-04-01T08:25:03,42.805,6.029,-0.033,0.039,0.006,105.0,105.0,104.0,13.4,1505.2,329.2,-0.7,1.8,2470.702,13.29,0.051,319.8
2022-04-01T08:28:03,42.805,6.029,-0.062,0.041,-0.013,106.0,106.0,103.0,13.3,1505.2,323.5,-0.8,1.8,2470.771,13.29,0.074,303.5
2022-04-01T08:31:03,42.805,6.029,-0.046,0.021,-0.032,105.0,106.0,103.0,13.4,1505.2,332.5,-0.7,1.8,2470.915,13.29,0.05,294.5
2022-04-01T08:34:03,42.805,6.029,-0.057,0.041,0.001,106.0,107.0,104.0,13.4,1505.2,323.4,-0.8,1.8,2470.97,13.29,0.07,305.7
2022-04-01T08:37:03,42.805,6.029,-0.063,0.019,-0.004,105.0,105.0,103.0,13.4,1505.2,325.0,-0.8,1.8,2471.107,13.29,0.065,286.8
2022-04-01T08:40:03,42.805,6.029,-0.06,0.025,0.0,106.0,106.0,103.0,13.4,1505.2,329.1,-0.8,1.8,2471.253,13.29,0.064,292.6
2022-04-01T08:43:03,42.805,6.029,-0.05,0.036,0.016,104.0,105.0,103.0,13.3,1505.2,332.0,-0.7,1.8,2471.304,13.29,0.061,305.8
2022-04-01T08:46:03,42.805,6.029,-0.045,0.046,0.022,106.0,107.0,103.0,13.4,1505.2,331.3,-0.8,1.8,2471.331,13.29,0.064,315.6
2022-04-01T08:49:03,42.805,6.029,-0.059,0.021,0.025,107.0,103.0,103.0,13.4,1505.2,326.0,-0.7,1.8,2471.31,13.29,0.062,289.6
2022-04-01T08:52:03,42.805,6.029,-0.071,0.013,-0.005,107.0,105.0,103.0,13.3,1505.2,325.0,-0.8,1.8,2471.437,13.29,0.072,280.4
2022-04-01T08:55:03,42.805,6.029,-0.056,0.038,0.009,105.0,105.0,104.0,13.3,1505.2,328.2,-0.7,1.8,2471.49,13.29,0.067,304.2
2022-04-01T08:58:03,42.805,6.029,-0.074,0.025,0.01,107.0,105.0,103.0,13.4,1505.2,328.6,-0.7,1.8,2471.476,13.29,0.078,288.7
2022-04-01T09:04:03,42.805,6.029,-0.058,0.029,-0.015,106.0,105.0,104.0,13.4,1505.2,333.2,-0.7,1.8,2471.527,13.28,0.064,296.6
2022-04-01T09:07:03,42.805,6.029,-0.064,0.023,0.008,106.0,105.0,103.0,13.4,1505.2,321.7,-0.7,1.8,2471.566,13.28,0.068,289.8
2022-04-01T09:10:03,42.805,6.029,-0.068,0.028,0.008,105.0,105.0,104.0,13.4,1505.2,324.3,-0.8,1.9,2471.691,13.28,0.073,292.4
2022-04-01T09:13:03,42.805,6.029,-0.079,0.014,0.002,105.0,105.0,104.0,13.4,1505.2,331.6,-0.8,1.8,2471.745,13.28,0.08,280.0
2022-04-01T09:16:03,42.805,6.029,-0.049,0.013,-0.022,106.0,106.0,103.0,13.4,1505.2,329.4,-0.8,1.8,2471.867,13.28,0.05,284.9
2022-04-01T09:19:03,42.805,6.029,-0.071,0.02,0.02,106.0,106.0,104.0,13.4,1505.2,327.0,-0.8,1.8,2471.971,13.28,0.073,285.7
2022-04-01T09:22:03,42.805,6.029,-0.067,0.014,-0.025,106.0,105.0,103.0,13.4,1505.2,328.7,-0.7,1.8,2472.07,13.29,0.068,281.8
2022-04-01T09:25:03,42.805,6.029,-0.069,0.016,-0.001,106.0,105.0,103.0,13.4,1505.2,325.0,-0.8,1.8,2472.173,13.29,0.07,283.1
2022-04-01T09:28:03,42.805,6.029,-0.065,0.039,0.011,105.0,105.0,103.0,13.4,1505.2,325.9,-0.7,1.8,2472.236,13.29,0.075,301.0
2022-04-01T09:31:03,42.805,6.029,-0.05,0.019,0.0,105.0,107.0,104.0,13.4,1505.2,325.8,-0.7,1.8,2472.371,13.29,0.053,290.8
2022-04-01T09:34:03,42.805,6.029,-0.062,0.033,-0.01,105.0,104.0,104.0,13.4,1505.2,329.6,-0.7,1.8,2472.505,13.29,0.07,298.0
2022-04-01T09:37:03,42.805,6.029,-0.078,0.024,0.016,106.0,107.0,103.0,13.4,1505.2,327.1,-0.7,1.9,2472.56,13.29,0.081,287.1
2022-04-01T09:40:03,42.805,6.029,-0.052,0.0,-0.005,105.0,107.0,103.0,13.4,1505.2,325.5,-0.8,1.8,2472.433,13.29,0.052,270.0
2022-04-01T09:43:03,42.805,6.029,-0.075,0.01,-0.003,105.0,104.0,103.0,13.4,1505.2,325.0,-0.7,1.8,2472.338,13.29,0.075,277.6
2022-04-01T09:46:03,42.805,6.029,-0.075,0.023,0.014,105.0,104.0,103.0,13.3,1505.2,330.5,-0.7,1.8,2472.215,13.29,0.078,287.0
2022-04-01T09:49:03,42.805,6.029,-0.064,0.035,0.002,105.0,105.0,102.0,13.4,1505.2,328.7,-0.7,1.8,2472.165,13.29,0.072,298.7
2022-04-01T09:52:03,42.805,6.029,-0.061,0.013,0.026,105.0,105.0,103.0,13.4,1505.2,332.5,-0.8,1.8,2472.058,13.29,0.062,282.0
2022-04-01T09:55:03,42.805,6.029,-0.068,0.022,0.002,105.0,106.0,104.0,13.3,1505.2,323.5,-0.8,1.8,2472.006,13.29,0.071,287.9